When you browse on this site, cookies collect data to enhance your experience and personalize the content and advertising you see.
Visit our Privacy Policy to learn more. By continuing to use the site, you agree to this use of cookies and data.
  • en Suisse
  • Liste des pays
  • À 7 jours
  • Température de l'eau
  • Carte météo
  • Widgets météo
  • user-avatar
    Se connecter

    Météo par heure à Bedford

    Ce jour, 28 Janvier, Mardi

    Heure Température Précipitation Vent Pression Humidité
    00:00 +2°C° 0 mm 5 m/s 739 mmHg 90%
    01:00 +2°C° 0.5 mm 5 m/s 738 mmHg 90%
    02:00 +2°C° 0.5 mm 5 m/s 738 mmHg 90%
    03:00 +2°C° 0.5 mm 6 m/s 738 mmHg 90%
    04:00 +1°C° 0 mm 6 m/s 739 mmHg 87%
    05:00 0°C° 0 mm 7 m/s 739 mmHg 84%
    06:00 -1°C° 0 mm 7 m/s 739 mmHg 84%
    07:00 -1°C° 0 mm 7 m/s 740 mmHg 83%
    08:00 -1°C° 0 mm 7 m/s 741 mmHg 82%
    09:00 -1°C° 0 mm 7 m/s 742 mmHg 81%
    10:00 0°C° 0 mm 8 m/s 742 mmHg 77%
    11:00 +1°C° 0 mm 8 m/s 743 mmHg 74%
    12:00 +4°C° 0 mm 8 m/s 743 mmHg 74%
    13:00 +4°C° 0 mm 8 m/s 743 mmHg 73%
    14:00 +4°C° 0 mm 8 m/s 743 mmHg 73%
    15:00 +4°C° 0 mm 7 m/s 743 mmHg 72%
    16:00 +3°C° 0 mm 7 m/s 744 mmHg 75%
    17:00 +2°C° 0 mm 6 m/s 744 mmHg 79%
    18:00 +1°C° 0 mm 5 m/s 745 mmHg 82%
    19:00 +1°C° 0 mm 6 m/s 745 mmHg 82%
    20:00 +1°C° 0 mm 6 m/s 746 mmHg 82%
    21:00 -1°C° 0 mm 6 m/s 746 mmHg 81%
    22:00 -1°C° 0 mm 6 m/s 747 mmHg 82%
    23:00 -1°C° 0 mm 6 m/s 747 mmHg 83%

    Demain, 29 Janvier, Mercredi

    Heure Température Précipitation Vent Pression Humidité
    00:00 -1°C° 0 mm 6 m/s 748 mmHg 85%
    01:00 -1°C° 0 mm 6 m/s 748 mmHg 84%
    02:00 -1°C° 0 mm 6 m/s 749 mmHg 84%
    03:00 -1°C° 0 mm 6 m/s 749 mmHg 84%
    04:00 -1°C° 0 mm 6 m/s 750 mmHg 83%
    05:00 -1°C° 0 mm 6 m/s 750 mmHg 83%
    06:00 -1°C° 0 mm 6 m/s 751 mmHg 82%
    07:00 -1°C° 0 mm 6 m/s 751 mmHg 83%
    08:00 0°C° 0 mm 5 m/s 752 mmHg 83%
    09:00 0°C° 0 mm 5 m/s 752 mmHg 84%
    10:00 +2°C° 0 mm 6 m/s 753 mmHg 81%
    11:00 +3°C° 0 mm 6 m/s 753 mmHg 77%
    12:00 +4°C° 0 mm 6 m/s 754 mmHg 74%
    13:00 +5°C° 0 mm 6 m/s 753 mmHg 75%
    14:00 +5°C° 0 mm 6 m/s 753 mmHg 77%
    15:00 +5°C° 0 mm 6 m/s 753 mmHg 78%
    16:00 +5°C° 0 mm 6 m/s 753 mmHg 80%
    17:00 +4°C° 0 mm 6 m/s 753 mmHg 82%
    18:00 +4°C° 0 mm 6 m/s 753 mmHg 84%
    19:00 +4°C° 0 mm 7 m/s 753 mmHg 86%
    20:00 +4°C° 0 mm 7 m/s 753 mmHg 87%
    21:00 +4°C° 0 mm 7 m/s 753 mmHg 89%
    22:00 +4°C° 0 mm 7 m/s 753 mmHg 89%
    23:00 +4°C° 0 mm 6 m/s 753 mmHg 90%

    Après-demain, 30 Janvier, Jeudi

    Heure Température Précipitation Vent Pression Humidité
    00:00 +4°C° 0 mm 6 m/s 753 mmHg 90%
    01:00 +5°C° 0 mm 5 m/s 752 mmHg 92%
    02:00 +3°C° 0 mm 5 m/s 752 mmHg 93%
    03:00 +4°C° 0 mm 4 m/s 752 mmHg 95%
    04:00 +4°C° 0 mm 4 m/s 751 mmHg 95%
    05:00 +5°C° 0 mm 4 m/s 751 mmHg 96%
    06:00 +5°C° 0 mm 4 m/s 751 mmHg 96%
    07:00 +5°C° 0 mm 4 m/s 750 mmHg 97%
    08:00 +6°C° 0 mm 4 m/s 750 mmHg 97%
    09:00 +6°C° 0 mm 4 m/s 750 mmHg 97%
    10:00 +7°C° 0 mm 4 m/s 749 mmHg 96%
    11:00 +8°C° 0 mm 5 m/s 749 mmHg 94%
    12:00 +9°C° 0 mm 6 m/s 748 mmHg 93%
    13:00 +9°C° 0 mm 6 m/s 748 mmHg 92%
    14:00 +10°C° 0 mm 6 m/s 747 mmHg 91%
    15:00 +10°C° 0 mm 7 m/s 747 mmHg 89%
    16:00 +10°C° 0 mm 6 m/s 747 mmHg 89%
    17:00 +10°C° 0 mm 6 m/s 747 mmHg 90%
    18:00 +9°C° 0 mm 6 m/s 747 mmHg 90%
    19:00 +9°C° 0 mm 6 m/s 748 mmHg 89%
    20:00 +9°C° 0 mm 6 m/s 748 mmHg 88%
    21:00 +9°C° 0 mm 6 m/s 749 mmHg 87%
    22:00 +9°C° 0 mm 6 m/s 750 mmHg 86%
    23:00 +9°C° 0 mm 6 m/s 750 mmHg 85%

    31 Janvier, Vendredi

    Heure Température Précipitation Vent Pression Humidité
    00:00 +8°C° 0 mm 6 m/s 751 mmHg 84%
    01:00 +8°C° 0 mm 6 m/s 751 mmHg 86%
    02:00 +8°C° 0 mm 6 m/s 751 mmHg 88%
    03:00 +8°C° 0 mm 6 m/s 751 mmHg 89%
    04:00 +8°C° 0 mm 6 m/s 751 mmHg 90%
    05:00 +8°C° 0 mm 6 m/s 751 mmHg 91%
    06:00 +8°C° 0 mm 6 m/s 751 mmHg 91%
    07:00 +8°C° 0 mm 6 m/s 751 mmHg 90%
    08:00 +9°C° 0 mm 7 m/s 751 mmHg 90%
    09:00 +9°C° 0 mm 7 m/s 751 mmHg 89%
    10:00 +10°C° 0 mm 7 m/s 751 mmHg 88%
    11:00 +10°C° 0 mm 7 m/s 751 mmHg 87%
    12:00 +11°C° 0 mm 7 m/s 750 mmHg 87%
    13:00 +11°C° 0 mm 7 m/s 750 mmHg 87%
    14:00 +11°C° 0 mm 7 m/s 750 mmHg 88%
    15:00 +11°C° 0 mm 8 m/s 749 mmHg 88%
    16:00 +11°C° 0 mm 7 m/s 749 mmHg 89%
    17:00 +11°C° 0 mm 7 m/s 749 mmHg 90%
    18:00 +11°C° 0 mm 7 m/s 749 mmHg 91%
    19:00 +11°C° 0 mm 7 m/s 749 mmHg 91%
    20:00 +11°C° 0 mm 6 m/s 749 mmHg 92%
    21:00 +11°C° 0 mm 6 m/s 749 mmHg 92%
    22:00 +11°C° 0 mm 6 m/s 748 mmHg 92%
    23:00 +10°C° 0 mm 6 m/s 748 mmHg 92%

    1 Février, Samedi

    Heure Température Précipitation Vent Pression Humidité
    00:00 +10°C° 0 mm 6 m/s 748 mmHg 93%
    01:00 +10°C° 0 mm 6 m/s 747 mmHg 91%
    02:00 +9°C° 0 mm 6 m/s 747 mmHg 90%
    03:00 +9°C° 0 mm 6 m/s 747 mmHg 88%
    04:00 +9°C° 0 mm 5 m/s 746 mmHg 88%
    05:00 +8°C° 0 mm 5 m/s 746 mmHg 88%
    06:00 +7°C° 0 mm 5 m/s 746 mmHg 88%
    07:00 +7°C° 0.8 mm 5 m/s 746 mmHg 88%
    08:00 +7°C° 0.8 mm 6 m/s 746 mmHg 88%
    09:00 +7°C° 0.8 mm 6 m/s 747 mmHg 88%
    10:00 +6°C° 0.4 mm 7 m/s 747 mmHg 82%
    11:00 +6°C° 0.4 mm 8 m/s 748 mmHg 76%
    12:00 +6°C° 0.4 mm 10 m/s 749 mmHg 70%
    13:00 +6°C° 0 mm 10 m/s 750 mmHg 69%
    14:00 +6°C° 0 mm 10 m/s 751 mmHg 69%
    15:00 +6°C° 0 mm 10 m/s 752 mmHg 69%
    16:00 +5°C° 0 mm 9 m/s 753 mmHg 70%
    17:00 +5°C° 0 mm 9 m/s 753 mmHg 72%
    18:00 +4°C° 0 mm 8 m/s 754 mmHg 73%
    19:00 +4°C° 0 mm 7 m/s 755 mmHg 75%
    20:00 +3°C° 0 mm 7 m/s 755 mmHg 77%
    21:00 +3°C° 0 mm 6 m/s 756 mmHg 79%
    22:00 +3°C° 0 mm 6 m/s 756 mmHg 81%
    23:00 +2°C° 0 mm 5 m/s 757 mmHg 83%

    2 Février, Dimanche

    Heure Température Précipitation Vent Pression Humidité
    00:00 +2°C° 0 mm 5 m/s 757 mmHg 84%
    01:00 +3°C° 0.1 mm 5 m/s 757 mmHg 86%
    02:00 +3°C° 0.1 mm 5 m/s 756 mmHg 87%
    03:00 +3°C° 0.1 mm 5 m/s 756 mmHg 88%
    04:00 +4°C° 1 mm 6 m/s 755 mmHg 90%
    05:00 +4°C° 1 mm 6 m/s 753 mmHg 91%
    06:00 +5°C° 1 mm 7 m/s 752 mmHg 93%
    07:00 +7°C° 0.6 mm 8 m/s 752 mmHg 93%
    08:00 +9°C° 0.6 mm 8 m/s 751 mmHg 92%
    09:00 +11°C° 0.6 mm 8 m/s 751 mmHg 92%
    10:00 +11°C° 0 mm 8 m/s 752 mmHg 90%
    11:00 +12°C° 0 mm 9 m/s 752 mmHg 87%
    12:00 +12°C° 0 mm 9 m/s 753 mmHg 84%
    13:00 +12°C° 0 mm 8 m/s 753 mmHg 83%
    14:00 +12°C° 0 mm 7 m/s 753 mmHg 81%
    15:00 +11°C° 0 mm 6 m/s 754 mmHg 79%
    16:00 +10°C° 0 mm 6 m/s 754 mmHg 82%
    17:00 +10°C° 0 mm 5 m/s 754 mmHg 84%
    18:00 +9°C° 0 mm 5 m/s 755 mmHg 86%
    19:00 +10°C° 0.1 mm 4 m/s 755 mmHg 89%
    20:00 +10°C° 0.1 mm 4 m/s 755 mmHg 91%
    21:00 +10°C° 0.1 mm 4 m/s 755 mmHg 93%
    22:00 +10°C° 0.5 mm 3 m/s 755 mmHg 95%
    23:00 +10°C° 0.5 mm 2 m/s 754 mmHg 96%
    Voir plus